| time (UTC) | temp C | wind direction | speed KPH | gust KPH | rain 1hr cm | rain 24hr cm | rain mn cm | humidity % | barometer mb |
| 20260504202730 | 15 | 66 | 9.7 | 16.1 | 0.00 | 0.00 | 0.00 | 42 | 1020.4 |
| 20260504201530 | 15 | 42 | 6.4 | 12.9 | 0.00 | 0.00 | 0.00 | 43 | 1020.4 |
| 20260504200518 | 15 | 352 | 9.7 | 14.5 | 0.00 | 0.00 | 0.00 | 43 | 1020.4 |
| 20260504195524 | 14 | 338 | 8.0 | 11.3 | 0.00 | 0.00 | 0.00 | 45 | 1020.2 |
| 20260504194530 | 14 | 44 | 6.4 | 12.9 | 0.00 | 0.00 | 0.00 | 45 | 1020.2 |
| 20260504193537 | 15 | 339 | 8.0 | 14.5 | 0.00 | 0.00 | 0.00 | 45 | 1020.2 |
| 20260504192523 | 13 | 348 | 8.0 | 19.3 | 0.00 | 0.00 | 0.00 | 47 | 1019.9 |
| 20260504191530 | 13 | 332 | 8.0 | 14.5 | 0.00 | 0.00 | 0.00 | 47 | 1020.2 |
| 20260504190537 | 13 | 55 | 6.4 | 12.9 | 0.00 | 0.00 | 0.00 | 47 | 1020.4 |
| 20260504185543 | 13 | 46 | 6.4 | 9.7 | 0.00 | 0.00 | 0.00 | 49 | 1020.2 |
| 20260504184529 | 13 | 356 | 8.0 | 12.9 | 0.00 | 0.00 | 0.00 | 49 | 1020.2 |
| 20260504183517 | 13 | 17 | 8.0 | 12.9 | 0.00 | 0.00 | 0.00 | 49 | 1020.2 |
| 20260504182522 | 13 | 36 | 8.0 | 14.5 | 0.00 | 0.00 | 0.00 | 48 | 1020.2 |
| 20260504181528 | 13 | 4 | 8.0 | 12.9 | 0.00 | 0.00 | 0.00 | 48 | 1020.2 |
| 20260504180517 | 13 | 338 | 6.4 | 11.3 | 0.00 | 0.00 | 0.00 | 48 | 1020.2 |
| 20260504175523 | 13 | 28 | 6.4 | 8.0 | 0.00 | 0.00 | 0.00 | 50 | 1020.3 |
| 20260504174548 | 13 | 43 | 8.0 | 12.9 | 0.00 | 0.00 | 0.00 | 48 | 1020.5 |
| 20260504173536 | 13 | 112 | 6.4 | 14.5 | 0.00 | 0.00 | 0.00 | 48 | 1020.6 |
| 20260504172522 | 13 | 68 | 6.4 | 12.9 | 0.00 | 0.00 | 0.00 | 48 | 1020.8 |
| 20260504171528 | 13 | 125 | 9.7 | 14.5 | 0.00 | 0.00 | 0.00 | 49 | 1020.4 |
| 20260504170515 | 13 | 108 | 6.4 | 9.7 | 0.00 | 0.00 | 0.00 | 47 | 1020.8 |
| 20260504150533 | 11 | 323 | 4.8 | 9.7 | 0.00 | 0.00 | 0.00 | 55 | 1021.8 |
| 20260504140532 | 8 | 246 | 6.4 | 8.0 | 0.00 | 0.00 | 0.00 | 63 | 1022.5 |
| 20260504130531 | 6 | 249 | 8.0 | 11.3 | 0.00 | 0.00 | 0.00 | 64 | 1022.1 |
| 20260504110530 | 7 | 329 | 6.4 | 12.9 | 0.00 | 0.00 | 0.00 | 57 | 1022.0 |
| 20260504100611 | 8 | 277 | 6.4 | 11.3 | 0.00 | 0.00 | 0.00 | 54 | 1021.7 |
| 20260504081603 | 12 | 273 | 11.3 | 22.5 | 0.00 | 0.00 | 0.00 | 49 | 1020.0 |
| 20260504080530 | 12 | 268 | 11.3 | 25.7 | 0.00 | 0.00 | 0.00 | 48 | 1019.4 |
| 20260504050546 | 12 | 272 | 6.4 | 11.3 | 0.00 | 0.00 | 0.00 | 47 | 1015.6 |
| 20260504045532 | 13 | 254 | 9.7 | 16.1 | 0.00 | 0.00 | 0.00 | 46 | 1015.9 |
| 20260504044537 | 13 | 250 | 12.9 | 20.9 | 0.00 | 0.00 | 0.00 | 45 | 1015.5 |
| 20260504043525 | 13 | 271 | 11.3 | 14.5 | 0.00 | 0.00 | 0.00 | 46 | 1015.7 |
| 20260504042531 | 13 | 270 | 9.7 | 14.5 | 0.00 | 0.00 | 0.00 | 45 | 1015.3 |
| 20260504041537 | 14 | 270 | 11.3 | 14.5 | 0.00 | 0.00 | 0.00 | 43 | 1015.3 |
| 20260504040524 | 14 | 267 | 11.3 | 12.9 | 0.00 | 0.00 | 0.00 | 41 | 1015.3 |
| 20260504035530 | 15 | 258 | 4.8 | 6.4 | 0.00 | 0.00 | 0.00 | 37 | 1015.1 |
| 20260504034518 | 15 | 267 | 8.0 | 9.7 | 0.00 | 0.00 | 0.00 | 36 | 1015.2 |
| 20260504033544 | 16 | 261 | 6.4 | 9.7 | 0.00 | 0.00 | 0.00 | 37 | 1015.1 |
| 20260504032530 | 16 | 258 | 9.7 | 11.3 | 0.00 | 0.00 | 0.00 | 37 | 1015.1 |
| 20260504031538 | 16 | 236 | 9.7 | 12.9 | 0.00 | 0.00 | 0.00 | 38 | 1015.0 |
| 20260504030543 | 16 | 238 | 9.7 | 12.9 | 0.00 | 0.00 | 0.00 | 37 | 1015.0 |
| 20260504025530 | 17 | 246 | 9.7 | 12.9 | 0.00 | 0.00 | 0.00 | 36 | 1014.7 |
| 20260504024518 | 17 | 240 | 8.0 | 9.7 | 0.00 | 0.00 | 0.00 | 36 | 1014.7 |
| 20260504023543 | 18 | 254 | 6.4 | 9.7 | 0.00 | 0.00 | 0.00 | 35 | 1014.8 |
| 20260504022528 | 19 | 250 | 8.0 | 8.0 | 0.00 | 0.00 | 0.00 | 34 | 1014.6 |
| 20260504021517 | 20 | 265 | 6.4 | 9.7 | 0.00 | 0.00 | 0.00 | 33 | 1014.6 |
| 20260504020523 | 21 | 270 | 9.7 | 14.5 | 0.00 | 0.00 | 0.00 | 31 | 1014.7 |
| 20260504015528 | 22 | 267 | 8.0 | 14.5 | 0.00 | 0.00 | 0.00 | 29 | 1014.9 |
| 20260504014516 | 22 | 270 | 12.9 | 14.5 | 0.00 | 0.00 | 0.00 | 29 | 1014.7 |
| 20260504013522 | 22 | 265 | 11.3 | 22.5 | 0.00 | 0.00 | 0.00 | 28 | 1014.7 |
| 20260504012529 | 23 | 270 | 16.1 | 22.5 | 0.00 | 0.00 | 0.00 | 27 | 1014.9 |
| 20260504011517 | 23 | 268 | 17.7 | 22.5 | 0.00 | 0.00 | 0.00 | 27 | 1015.0 |
| 20260504010539 | 23 | 268 | 16.1 | 24.1 | 0.00 | 0.00 | 0.00 | 27 | 1015.0 |
| 20260504005527 | 23 | 267 | 16.1 | 24.1 | 0.00 | 0.00 | 0.00 | 27 | 1014.7 |
| 20260504004515 | 23 | 269 | 17.7 | 25.7 | 0.00 | 0.00 | 0.00 | 27 | 1014.7 |
| 20260504003602 | 23 | 270 | 19.3 | 24.1 | 0.00 | 0.00 | 0.00 | 26 | 1015.0 |
| 20260504002526 | 24 | 267 | 20.9 | 27.4 | 0.00 | 0.00 | 0.00 | 25 | 1015.0 |
| 20260504001532 | 25 | 261 | 12.9 | 22.5 | 0.00 | 0.00 | 0.00 | 26 | 1015.1 |
| 20260504000522 | 25 | 269 | 17.7 | 27.4 | 0.00 | 0.00 | 0.00 | 24 | 1015.3 |
| 20260503235526 | 25 | 267 | 11.3 | 19.3 | 0.00 | 0.00 | 0.00 | 25 | 1015.4 |
| 20260503234551 | 25 | 263 | 12.9 | 17.7 | 0.00 | 0.00 | 0.00 | 24 | 1015.6 |
| 20260503233537 | 25 | 267 | 12.9 | 17.7 | 0.00 | 0.00 | 0.00 | 24 | 1015.6 |
| 20260503232544 | 25 | 255 | 16.1 | 22.5 | 0.00 | 0.00 | 0.00 | 24 | 1015.6 |
| 20260503231530 | 25 | 267 | 8.0 | 16.1 | 0.00 | 0.00 | 0.00 | 26 | 1015.6 |
| 20260503230522 | 25 | 303 | 8.0 | 14.5 | 0.00 | 0.00 | 0.00 | 28 | 1016.0 |
| 20260503225524 | 25 | 275 | 11.3 | 19.3 | 0.00 | 0.00 | 0.00 | 25 | 1016.2 |
| 20260503224550 | 25 | 288 | 8.0 | 16.1 | 0.00 | 0.00 | 0.00 | 26 | 1016.5 |
| 20260503223518 | 25 | 284 | 11.3 | 19.3 | 0.00 | 0.00 | 0.00 | 26 | 1016.5 |
| 20260503222523 | 25 | 312 | 9.7 | 16.1 | 0.00 | 0.00 | 0.00 | 27 | 1016.5 |
| 20260503221530 | 23 | 270 | 11.3 | 17.7 | 0.00 | 0.00 | 0.00 | 27 | 1016.7 |
| 20260503220538 | 24 | 262 | 11.3 | 19.3 | 0.00 | 0.00 | 0.00 | 29 | 1016.9 |
| 20260503215524 | 25 | 233 | 12.9 | 19.3 | 0.00 | 0.00 | 0.00 | 30 | 1017.2 |
| 20260503214528 | 25 | 252 | 11.3 | 19.3 | 0.00 | 0.00 | 0.00 | 30 | 1017.4 |
| 20260503213516 | 25 | 266 | 19.3 | 27.4 | 0.00 | 0.00 | 0.00 | 30 | 1017.8 |
| 20260503212522 | 25 | 248 | 9.7 | 19.3 | 0.00 | 0.00 | 0.00 | 30 | 1017.8 |
| 20260503211528 | 25 | 254 | 14.5 | 24.1 | 0.00 | 0.00 | 0.00 | 29 | 1018.1 |
| 20260503210536 | 25 | 257 | 19.3 | 27.4 | 0.00 | 0.00 | 0.00 | 29 | 1018.2 |
| 20260503205522 | 24 | 248 | 6.4 | 16.1 | 0.00 | 0.00 | 0.00 | 29 | 1018.1 |
| 20260503204607 | 24 | 257 | 12.9 | 22.5 | 0.00 | 0.00 | 0.00 | 30 | 1018.4 |
| 20260503203515 | 25 | 248 | 11.3 | 19.3 | 0.00 | 0.00 | 0.00 | 29 | 1018.5 |